Temp
73 77 82 83 83 83 83 83 83 83 83 83 83 83 83 83 82 82 83 83 82 83 83 83 83 83 83 83 83 83 83 83 83 82 83 82 82 82 82 83 82 81 82
76 78 81 83 83 83 83 83 83 82 83 83 83 83 83 83 83 83 83 83 83 83 83 83 83 83 83 83 83 83 83 83 83 83 83 83 82 82 82 83 82 81 82
77 78 79 82 83 83 83 83 83 83 83 83 83 83 83 83 83 83 83 83 83 83 83 83 83 83 83 82 83 83 83 82 82 82 81 76 77 82 82 82 82 82 81
76 76 77 82 82 83 83 82 83 83 83 83 83 83 83 83 83 83 83 83 83 83 83 83 83 83 83 83 83 82 81 80 81 81 76 75 77 81 81 83 82 82 81
74 76 78 82 82 83 82 82 82 83 82 83 83 83 83 83 83 83 83 83 83 83 83 83 83 83 83 83 82 79 80 80 79 78 74 72 71 80 81 83 82 81 80
75 77 81 82 83 83 82 82 82 82 83 83 83 83 83 83 83 83 83 83 83 83 83 81 84 84 84 84 80 79 80 80 79 75 73 74 72 79 80 83 82 82 81
74 76 78 82 82 82 82 82 82 82 83 83 83 83 83 82 82 83 83 82 82 83 83 83 83 84 83 84 81 80 80 81 74 72 73 73 72 78 82 82 82 82 81
74 75 77 82 82 82 82 82 82 82 83 83 83 83 82 82 82 82 83 83 83 83 83 83 83 83 83 83 82 80 80 80 76 73 73 72 74 78 80 83 82 82 81
74 74 74 76 79 83 83 83 82 83 83 83 83 82 83 83 83 83 82 82 83 83 83 82 83 83 84 83 81 80 79 80 72 72 75 72 76 78 79 82 82 81 81
73 73 72 74 74 74 76 82 82 82 83 83 83 82 82 83 83 82 81 80 82 84 84 83 84 84 83 83 82 80 79 80 73 73 71 72 77 78 80 81 82 82 81
72 70 71 73 73 73 74 78 81 83 83 83 82 81 79 74 74 76 79 82 84 84 85 85 84 83 82 82 82 80 80 71 72 72 71 75 77 78 80 82 81 81 81
69 69 70 72 72 73 80 75 74 76 74 74 74 74 73 73 73 78 79 82 83 84 84 83 82 83 82 76 75 79 71 70 70 70 70 76 77 78 80 80 81 81 81
70 72 72 71 72 73 75 72 71 72 72 73 74 73 72 72 72 73 73 74 74 78 76 77 75 76 74 74 75 74 73 71 69 70 74 76 77 79 80 81 81 81 81
71 73 73 73 72 73 73 72 72 72 72 72 73 73 72 71 72 72 72 74 73 74 75 74 72 73 73 74 74 75 73 72 71 72 72 78 79 79 80 82 81 80 81
72 74 74 74 73 73 74 71 72 72 72 73 73 74 73 72 71 73 74 75 72 74 75 74 73 74 74 74 74 74 74 74 74 74 71 79 80 80 81 81 82 81 81
75 74 74 74 74 74 74 73 72 72 73 73 73 73 73 70 72 73 73 73 74 77 78 74 73 74 74 74 76 75 76 75 75 74 74 73 81 80 80 81 81 81 81
75 75 74 74 75 75 74 73 73 74 76 74 74 75 75 74 74 74 74 73 74 75 76 76 75 74 72 75 75 74 75 76 75 75 75 74 76 81 81 81 80 80 80
76 74 75 81 76 75 74 74 74 75 74 75 75 76 77 77 76 74 74 74 75 74 74 74 73 73 72 71 71 72 73 75 74 75 74 74 74 76 79 79 79 79 80
77 75 74 76 76 75 75 75 74 75 75 76 76 76 76 78 78 75 75 74 76 74 74 73 72 72 70 70 73 70 72 72 74 77 74 74 73 72 72 79 79 79 80
78 78 76 75 74 75 74 74 73 74 74 75 75 76 77 77 78 76 76 76 75 74 73 72 71 70 69 69 75 72 70 71 72 71 72 75 71 72 70 71 72 74 79
77 76 74 72 72 72 72 72 71 72 73 73 75 77 76 77 78 76 75 75 74 73 72 72 71 68 68 66 68 68 68 69 69 69 70 69 71 71 69 69 69 69 73
76 76 74 73 72 72 73 72 73 73 74 74 75 76 77 78 77 77 74 74 74 73 72 71 70 67 65 64 65 62 63 67 67 66 66 68 66 67 69 69 68 68 68
75 74 75 74 73 73 73 73 72 73 72 72 73 73 75 78 78 77 76 74 73 73 71 70 68 67 63 64 62 63 58 58 58 63 63 63 64 64 65 66 67 67 66
76 77 77 75 73 74 72 73 72 71 70 71 72 73 75 77 78 78 77 75 74 73 71 70 70 66 62 61 62 64 60 60 58 58 61 60 62 63 62 64 65 65 65
79 77 76 76 75 74 72 73 72 71 72 71 72 72 73 74 76 78 77 75 74 73 72 70 68 65 62 60 59 60 59 57 56 56 54 57 60 59 61 61 62 62 64
80 79 76 75 76 74 73 72 72 72 72 71 71 70 72 72 74 75 77 75 74 73 71 69 67 66 61 60 58 58 58 58 56 55 53 53 53 58 59 60 61 61 61
MSLP
1013.92 1013.78 1013.61 1013.64 1013.74 1013.79 1013.87 1013.83 1013.88 1013.93 1013.95 1013.92 1013.94 1013.97 1014.01 1014.09 1014.19 1014.27 1014.27 1014.35 1014.58 1014.66 1014.74 1014.71 1014.70 1014.67 1014.60 1014.48 1014.51 1014.53 1014.47 1014.51 1014.59 1014.78 1014.95 1015.12 1015.22 1015.40 1015.56 1015.73 1015.81 1015.86 1015.77
1013.77 1013.80 1013.84 1013.84 1013.91 1013.95 1014.03 1014.07 1014.09 1014.13 1014.08 1014.10 1014.10 1014.21 1014.24 1014.27 1014.26 1014.28 1014.41 1014.58 1014.69 1014.82 1014.84 1014.84 1014.79 1014.85 1014.86 1014.87 1014.86 1014.82 1014.74 1014.69 1014.66 1014.73 1014.95 1015.18 1015.41 1015.61 1015.72 1015.62 1015.89 1016.05 1016.20
1013.93 1013.95 1013.99 1013.93 1014.01 1014.13 1014.28 1014.26 1014.15 1014.18 1014.18 1014.17 1014.25 1014.35 1014.41 1014.36 1014.44 1014.44 1014.61 1014.81 1014.96 1014.99 1014.94 1014.93 1014.94 1015.01 1015.10 1015.13 1014.91 1014.81 1014.76 1014.79 1014.78 1014.83 1015.08 1015.48 1015.57 1015.56 1015.63 1015.80 1015.94 1016.34 1016.41
1013.97 1014.08 1014.11 1014.07 1014.14 1014.30 1014.39 1014.35 1014.27 1014.27 1014.40 1014.45 1014.50 1014.54 1014.62 1014.70 1014.70 1014.70 1014.79 1015.04 1015.13 1015.08 1015.10 1015.19 1015.12 1015.01 1014.99 1014.88 1014.77 1014.72 1014.73 1014.59 1014.64 1014.75 1015.29 1015.63 1015.78 1015.75 1015.76 1015.85 1016.20 1016.41 1016.59
1014.17 1014.13 1014.15 1014.31 1014.38 1014.50 1014.51 1014.49 1014.53 1014.60 1014.71 1014.76 1014.76 1014.79 1014.83 1014.87 1014.92 1014.96 1015.08 1015.17 1015.16 1015.17 1015.25 1015.21 1015.22 1014.86 1014.59 1014.57 1014.61 1014.74 1014.68 1014.58 1014.72 1014.94 1015.32 1015.71 1015.90 1015.94 1016.03 1016.05 1016.31 1016.67 1016.90
1014.27 1014.36 1014.34 1014.47 1014.54 1014.57 1014.55 1014.73 1014.76 1014.83 1014.95 1015.05 1015.13 1015.12 1015.12 1015.18 1015.26 1015.20 1015.29 1015.29 1015.19 1015.21 1015.33 1015.24 1015.05 1014.84 1014.82 1014.61 1014.44 1014.34 1014.44 1014.57 1014.98 1015.37 1015.55 1015.80 1016.00 1015.87 1015.98 1016.11 1016.37 1016.55 1016.77
1014.29 1014.43 1014.54 1014.64 1014.67 1014.59 1014.78 1014.94 1014.99 1014.95 1015.18 1015.26 1015.27 1015.34 1015.39 1015.36 1015.36 1015.37 1015.44 1015.40 1015.27 1015.12 1015.22 1015.13 1015.15 1015.03 1014.61 1014.57 1014.49 1014.61 1014.38 1014.33 1015.05 1015.43 1015.81 1015.86 1016.13 1016.03 1015.99 1016.15 1016.22 1016.45 1016.73
1014.34 1014.55 1014.68 1014.78 1014.75 1014.78 1015.10 1015.08 1015.03 1015.21 1015.40 1015.32 1015.31 1015.30 1015.37 1015.40 1015.35 1015.42 1015.52 1015.32 1015.15 1015.23 1015.11 1014.95 1015.02 1015.11 1014.73 1014.40 1014.72 1014.98 1015.13 1014.89 1015.16 1015.33 1015.41 1015.85 1016.16 1016.12 1016.13 1016.06 1016.24 1016.43 1016.64
1014.58 1014.68 1014.82 1014.90 1014.92 1015.05 1015.15 1015.09 1015.21 1015.37 1015.38 1015.41 1015.20 1015.31 1015.48 1015.44 1015.26 1015.38 1015.38 1015.30 1015.03 1014.99 1014.99 1015.02 1014.90 1015.00 1014.61 1014.70 1014.84 1015.07 1015.26 1014.94 1015.43 1015.50 1015.48 1015.97 1016.26 1016.24 1016.23 1016.12 1016.19 1016.50 1016.67
1015.05 1014.84 1015.02 1015.08 1015.18 1015.38 1015.29 1015.21 1015.31 1015.40 1015.41 1015.41 1015.34 1015.44 1015.54 1015.37 1015.35 1015.33 1015.38 1015.29 1014.93 1014.81 1014.73 1014.78 1014.48 1014.85 1014.70 1014.93 1015.20 1015.16 1015.36 1014.99 1015.49 1015.75 1015.95 1016.17 1016.16 1016.28 1016.34 1016.21 1016.25 1016.41 1016.68
1015.46 1015.27 1015.26 1015.23 1015.47 1015.54 1015.49 1015.36 1015.39 1015.49 1015.51 1015.42 1015.48 1015.58 1015.59 1015.53 1015.60 1015.42 1015.41 1015.18 1014.85 1014.58 1014.68 1014.96 1014.67 1014.91 1015.04 1015.14 1015.48 1015.51 1015.56 1015.49 1015.34 1015.63 1015.93 1016.03 1016.14 1016.31 1016.46 1016.42 1016.46 1016.62 1016.82
1015.64 1015.50 1015.53 1015.40 1015.61 1015.62 1015.43 1015.54 1015.51 1015.56 1015.73 1015.74 1015.65 1015.84 1015.72 1015.66 1015.62 1015.34 1015.32 1014.95 1014.76 1014.66 1014.82 1015.08 1014.85 1014.91 1015.14 1015.45 1015.71 1015.75 1015.94 1016.01 1015.90 1015.89 1016.00 1016.00 1016.18 1016.30 1016.30 1016.27 1016.39 1016.51 1016.82
1015.36 1015.43 1015.55 1015.62 1015.62 1015.74 1015.61 1015.72 1015.66 1015.82 1015.82 1015.77 1015.65 1015.76 1015.79 1015.84 1015.64 1015.45 1015.32 1015.17 1015.11 1015.08 1015.11 1015.23 1015.37 1015.10 1015.33 1015.51 1015.58 1015.64 1015.79 1016.07 1016.23 1016.08 1016.04 1016.16 1016.27 1016.20 1016.14 1016.12 1016.26 1016.46 1016.57
1015.22 1015.33 1015.45 1015.53 1015.68 1015.80 1015.74 1015.78 1015.74 1015.92 1015.95 1015.78 1015.67 1015.69 1015.75 1015.89 1015.83 1015.71 1015.42 1015.17 1015.16 1015.10 1015.12 1015.14 1015.35 1015.45 1015.49 1015.58 1015.52 1015.54 1015.54 1015.74 1015.94 1016.05 1016.30 1016.35 1016.29 1016.32 1016.33 1016.26 1016.32 1016.54 1016.48
1015.17 1015.26 1015.41 1015.57 1015.75 1015.75 1015.76 1015.82 1015.89 1016.12 1016.13 1015.95 1015.86 1015.83 1015.86 1016.05 1016.21 1015.80 1015.48 1015.30 1015.34 1015.10 1015.17 1015.26 1015.19 1015.14 1015.35 1015.39 1015.44 1015.47 1015.58 1015.67 1015.77 1016.01 1016.13 1016.05 1016.08 1016.20 1016.15 1016.12 1016.43 1016.64 1016.66
1015.02 1015.13 1015.33 1015.45 1015.35 1015.66 1015.80 1015.68 1015.94 1016.08 1016.14 1015.98 1016.07 1016.04 1016.15 1016.28 1016.09 1016.04 1015.86 1015.73 1015.40 1015.02 1015.01 1015.17 1015.32 1015.35 1015.25 1015.18 1014.94 1015.02 1015.01 1015.29 1015.64 1016.06 1016.10 1016.15 1016.07 1016.25 1016.42 1016.48 1016.65 1016.88 1016.90
1014.73 1014.95 1015.24 1015.30 1015.20 1015.63 1015.73 1015.85 1015.95 1016.05 1015.97 1015.96 1016.10 1016.04 1016.16 1016.04 1016.08 1015.98 1016.02 1016.27 1015.94 1015.52 1015.27 1015.30 1015.38 1015.33 1015.40 1015.08 1015.07 1015.00 1015.06 1015.19 1015.56 1015.93 1015.98 1016.28 1016.37 1016.53 1016.55 1016.75 1017.04 1017.24 1017.38
1014.48 1014.89 1015.18 1015.32 1015.50 1015.51 1015.79 1015.82 1015.97 1015.96 1015.91 1015.99 1015.98 1015.98 1015.99 1016.06 1016.04 1016.09 1016.21 1016.39 1016.21 1016.08 1015.82 1015.85 1015.85 1015.72 1015.59 1015.70 1015.45 1015.33 1015.27 1015.27 1015.69 1016.01 1016.21 1016.57 1016.77 1016.79 1016.88 1017.07 1017.39 1017.46 1017.55
1014.13 1014.59 1015.14 1015.26 1015.44 1015.46 1015.61 1015.75 1015.98 1015.85 1015.88 1015.95 1016.02 1016.06 1016.02 1016.06 1016.05 1016.14 1016.25 1016.28 1016.21 1016.34 1016.23 1016.36 1016.26 1016.15 1016.22 1016.07 1015.93 1015.84 1015.86 1015.95 1016.09 1016.13 1016.49 1016.86 1017.06 1017.17 1017.36 1017.37 1017.60 1017.69 1017.72
1013.87 1014.28 1014.86 1015.13 1015.28 1015.42 1015.71 1016.01 1016.11 1016.05 1016.05 1016.05 1016.16 1016.22 1016.28 1016.25 1016.14 1016.23 1016.22 1016.30 1016.34 1016.65 1016.62 1016.72 1016.75 1016.68 1016.67 1016.63 1016.42 1016.54 1016.61 1016.69 1016.66 1016.92 1017.05 1017.13 1017.37 1017.48 1017.55 1017.60 1017.77 1017.79 1017.82
1013.80 1014.27 1014.72 1015.11 1015.28 1015.38 1015.75 1016.23 1016.53 1016.53 1016.35 1016.32 1016.25 1016.24 1016.36 1016.32 1016.23 1016.26 1016.38 1016.47 1016.60 1016.87 1017.03 1017.08 1017.08 1017.20 1017.24 1017.25 1017.21 1017.41 1017.50 1017.46 1017.57 1017.60 1017.56 1017.66 1017.75 1017.78 1017.77 1017.80 1017.97 1018.07 1018.00
1013.59 1014.09 1014.52 1014.83 1015.13 1015.24 1015.42 1015.94 1016.25 1016.31 1016.22 1016.04 1016.13 1016.34 1016.35 1016.22 1016.19 1016.34 1016.53 1016.76 1016.78 1016.97 1017.16 1017.31 1017.35 1017.68 1017.88 1017.69 1017.98 1018.43 1018.56 1018.62 1018.28 1018.24 1018.15 1018.14 1018.19 1018.05 1018.03 1018.18 1018.30 1018.38 1018.37
1013.31 1013.79 1014.22 1014.46 1014.75 1014.97 1015.23 1015.74 1016.10 1016.21 1016.27 1016.40 1016.43 1016.47 1016.36 1016.22 1016.17 1016.37 1016.55 1016.60 1016.88 1017.07 1017.40 1017.59 1017.60 1017.70 1018.21 1018.38 1018.18 1018.52 1019.32 1019.51 1019.31 1018.97 1018.78 1018.53 1018.36 1018.37 1018.33 1018.32 1018.44 1018.62 1018.66
1012.82 1013.46 1013.77 1014.04 1014.37 1014.73 1015.09 1015.48 1015.96 1016.22 1016.43 1016.33 1016.32 1016.33 1016.32 1016.18 1016.23 1016.37 1016.46 1016.65 1016.88 1017.13 1017.42 1017.56 1017.69 1017.89 1018.21 1018.70 1018.58 1018.59 1018.71 1019.06 1019.69 1019.91 1019.41 1019.22 1019.06 1018.97 1018.80 1018.70 1018.83 1018.76 1018.87
1012.14 1012.82 1013.33 1013.68 1014.02 1014.41 1014.98 1015.27 1015.74 1016.08 1016.16 1016.20 1016.33 1016.40 1016.33 1016.34 1016.28 1016.41 1016.55 1016.71 1017.11 1017.25 1017.50 1017.63 1017.73 1017.89 1018.21 1018.77 1019.00 1019.14 1019.20 1019.43 1019.65 1020.07 1020.38 1019.98 1019.63 1019.36 1019.20 1019.12 1018.99 1018.99 1018.90
1011.30 1012.15 1012.94 1013.43 1013.68 1014.09 1014.65 1015.11 1015.51 1015.95 1016.18 1016.45 1016.47 1016.54 1016.41 1016.48 1016.49 1016.47 1016.54 1016.72 1017.01 1017.17 1017.51 1017.74 1017.98 1018.19 1018.49 1018.74 1018.97 1019.09 1019.39 1019.83 1020.18 1020.42 1020.69 1020.68 1020.60 1020.09 1019.72 1019.39 1019.18 1019.12 1019.00
Wind_Speed
1 4 10 11 10 13 12 13 13 14 14 14 14 14 13 13 12 10 12 12 13 11 10 9 9 8 8 7 8 7 7 6 5 5 6 6 6 6 7 9 10 6 10
6 4 8 10 11 12 12 12 13 13 13 13 13 13 12 12 12 12 12 12 12 12 10 9 9 8 8 8 8 8 6 6 4 3 5 4 4 3 3 5 7 6 6
6 5 6 10 11 11 11 12 12 12 13 13 13 13 12 12 11 10 11 11 11 10 10 9 8 7 7 8 7 7 6 6 4 6 7 4 3 3 2 1 5 7 7
6 5 5 10 12 10 12 11 11 12 11 12 12 12 11 10 10 9 10 10 9 8 8 8 6 6 5 6 6 5 5 2 1 0 5 5 5 5 6 4 4 5 5
6 5 6 11 11 11 10 11 11 11 11 11 11 10 10 10 9 8 8 8 7 6 6 5 5 4 5 5 8 7 5 4 4 5 5 3 3 2 5 2 3 5 4
6 4 9 12 12 11 10 10 9 9 9 9 9 9 8 8 6 6 6 5 4 3 3 1 3 4 4 5 12 12 10 7 6 4 4 3 3 5 3 4 5 4 4
6 5 6 11 11 10 9 9 9 8 8 8 7 6 5 6 5 4 3 1 0 2 1 3 2 1 4 5 12 9 11 9 6 3 4 2 3 5 3 4 3 4 3
9 6 6 10 10 9 9 8 8 7 7 6 6 6 5 4 4 3 2 2 4 4 4 5 4 3 5 8 6 9 7 6 3 2 2 2 4 4 6 3 5 4 3
5 6 6 4 7 9 8 8 6 7 6 5 5 4 4 4 3 0 2 4 6 6 6 6 7 6 7 7 5 5 8 9 3 0 2 1 5 7 7 7 3 5 5
4 5 6 3 3 3 3 6 6 5 4 3 2 2 4 3 2 4 6 6 7 7 7 2 5 4 8 8 7 2 10 8 2 4 2 2 4 6 8 8 7 7 7
3 4 4 4 3 3 3 3 4 5 4 3 1 4 2 3 5 4 7 9 9 7 8 1 2 4 8 7 5 4 6 3 1 2 1 4 5 6 9 8 6 6 8
5 5 5 5 5 4 3 2 1 2 1 2 2 2 2 4 2 4 5 9 11 12 6 1 3 2 5 2 2 4 1 3 3 2 2 6 7 7 8 11 6 6 8
6 4 6 5 4 4 2 2 2 0 2 2 2 1 2 2 2 3 3 3 3 7 3 1 2 3 3 3 3 3 3 3 3 2 3 6 7 6 8 10 7 6 8
7 7 6 6 5 5 2 3 2 0 1 2 2 3 2 1 3 4 3 3 2 2 2 2 1 2 4 3 4 5 5 3 2 1 2 6 7 7 8 6 5 6 5
6 7 7 6 6 5 5 3 2 1 1 2 2 2 0 2 1 2 2 2 2 1 2 1 3 2 4 5 5 5 5 5 3 2 1 7 7 8 10 5 2 3 6
7 7 6 7 7 5 5 5 3 1 3 1 1 3 3 2 1 3 3 4 4 3 3 3 1 1 2 3 6 5 6 5 3 4 2 3 7 6 6 1 6 7 10
6 6 7 7 6 6 6 4 3 3 3 1 2 3 3 2 4 4 3 3 3 4 5 4 3 2 3 3 2 4 4 5 4 4 2 1 1 4 4 5 7 9 9
7 8 7 7 6 7 6 5 3 3 2 2 2 1 1 2 3 3 3 2 2 2 3 3 3 4 4 4 2 2 1 4 5 4 4 1 1 1 3 6 8 8 9
10 9 8 7 8 7 6 4 2 3 2 3 2 1 1 1 3 4 2 2 4 3 4 3 4 3 4 4 4 3 3 4 4 4 4 3 3 2 1 6 8 7 7
12 13 9 6 7 6 5 3 2 1 1 2 2 2 2 0 4 4 4 4 4 3 4 4 5 5 4 3 6 6 5 4 4 4 3 3 2 2 2 3 3 4 7
11 11 10 8 7 4 2 3 2 2 1 2 3 3 4 3 4 4 3 3 3 4 4 3 1 6 6 3 2 4 5 6 6 4 3 2 1 1 1 3 3 1 3
14 12 10 9 7 5 3 3 3 2 3 2 2 2 3 2 4 3 3 3 4 4 5 5 4 2 3 5 3 3 3 5 4 5 4 3 2 1 2 1 1 2 2
13 13 13 10 9 6 6 3 2 3 2 2 0 2 3 4 2 3 3 3 4 3 4 3 3 3 2 4 6 4 2 3 0 2 3 4 4 2 0 1 3 4 3
15 13 13 11 9 7 7 4 4 3 3 3 3 2 3 3 2 1 3 4 4 3 4 3 2 2 3 1 2 4 5 3 2 2 3 3 3 5 1 1 3 1 3
17 14 12 12 10 8 7 7 5 3 2 1 1 4 3 2 2 2 3 5 4 3 3 4 4 5 3 3 1 1 4 4 4 3 2 5 4 4 3 2 3 1 2
16 15 13 14 13 9 9 8 8 7 5 3 3 4 4 2 2 3 3 5 5 5 5 4 4 5 4 4 2 3 2 3 1 2 1 1 2 3 2 2 1 2 1
Wind_Direction
61 135 135 123 116 109 108 103 102 102 102 102 102 102 102 103 103 104 107 114 111 112 109 107 95 84 75 62 59 53 47 48 53 73 77 78 73 77 87 89 90 89 93
123 144 137 129 125 112 109 107 105 103 102 103 102 101 103 107 107 105 98 105 103 107 103 96 93 90 80 71 67 62 46 39 50 89 95 94 102 109 112 81 87 95 97
129 129 136 135 126 124 113 111 115 110 109 106 108 106 106 108 106 105 103 101 103 105 104 100 97 84 72 71 64 53 55 55 59 103 93 69 23 27 352 273 137 127 121
125 124 142 130 126 120 121 122 122 116 112 114 107 112 107 107 111 104 104 104 109 111 109 104 101 96 76 96 99 103 117 140 180 312 67 50 3 11 358 29 106 114 113
121 138 146 128 124 126 128 126 123 120 121 115 120 117 117 112 114 112 109 108 117 121 116 123 124 133 142 128 122 127 163 184 134 116 104 65 33 319 321 98 137 152 137
140 144 138 137 130 132 135 125 131 125 125 124 117 112 118 118 120 119 117 122 122 125 114 132 138 140 100 129 159 166 168 174 145 117 113 95 15 344 229 195 177 173 168
144 145 143 134 129 139 133 129 127 140 126 126 121 127 126 131 132 129 114 95 195 244 256 280 287 123 201 192 188 177 174 185 75 80 136 152 297 4 228 221 199 204 208
143 139 133 142 148 147 133 145 151 139 131 139 137 156 163 165 169 162 162 223 259 272 268 264 270 267 235 220 179 194 200 214 98 356 160 184 265 23 1 231 254 196 221
127 131 130 142 159 154 143 159 155 142 152 159 182 181 213 197 213 197 287 282 262 267 270 264 254 241 241 229 159 161 191 204 78 167 146 52 346 343 340 300 220 222 222
115 139 141 166 148 139 165 164 161 164 177 184 231 259 296 261 330 352 349 304 298 273 271 285 213 165 198 210 170 169 183 198 157 26 16 18 316 313 290 280 230 233 230
130 162 159 170 172 173 202 225 181 197 212 233 235 328 339 338 10 357 332 307 293 292 281 20 296 146 182 218 177 174 171 297 242 280 317 290 295 303 318 287 248 245 249
181 201 188 180 191 196 208 214 220 270 310 307 299 317 276 22 338 319 311 311 323 317 296 112 11 265 176 180 236 247 147 261 257 262 273 276 275 292 294 295 279 260 255
188 189 188 189 198 205 237 186 232 296 321 310 316 334 94 89 320 356 356 336 310 326 310 68 63 344 163 195 218 240 229 195 241 228 291 284 263 251 263 275 238 245 262
171 203 183 191 194 208 226 210 230 120 339 313 330 313 33 54 12 358 342 332 320 265 265 309 198 212 246 258 218 209 245 278 226 212 268 282 258 264 271 266 259 275 293
171 194 192 193 200 198 208 219 252 203 227 282 306 287 70 93 0 7 18 7 334 326 138 199 283 257 191 224 223 215 207 240 261 273 184 241 244 246 256 239 174 51 71
181 188 180 202 211 176 218 208 211 181 202 134 290 193 144 154 76 68 41 18 347 2 102 61 166 226 302 232 241 211 223 203 198 213 207 270 246 238 245 183 101 91 86
187 169 183 198 213 174 182 163 195 212 181 191 231 195 178 118 69 62 61 41 357 16 27 35 52 110 47 12 338 204 257 190 174 186 166 278 260 209 177 115 114 107 98
164 171 173 186 182 164 162 170 188 229 191 186 244 263 182 118 75 65 70 87 85 45 41 23 359 25 6 52 346 334 162 128 120 136 116 154 163 125 133 120 118 124 120
172 159 177 175 182 168 151 137 207 185 209 209 212 224 281 28 59 74 86 94 72 38 42 31 28 44 19 4 68 51 58 93 125 129 140 151 160 120 114 136 140 140 141
171 169 177 170 180 175 136 118 63 31 285 216 231 232 231 166 75 88 70 67 65 57 44 50 50 24 34 10 51 55 42 37 63 80 121 156 138 143 168 143 145 167 161
168 163 175 166 193 157 132 121 94 217 260 249 216 218 204 169 98 86 77 69 72 75 62 35 72 50 21 4 64 40 41 40 56 41 42 36 197 236 229 170 169 198 169
172 174 177 181 179 185 152 146 151 176 218 178 163 245 249 192 129 113 115 86 93 97 61 33 41 55 37 9 109 54 46 1 18 19 28 27 82 39 338 273 182 181 163
178 177 185 185 178 183 180 126 94 73 47 70 248 261 245 229 146 143 136 108 98 97 90 80 64 87 114 24 47 133 87 197 322 324 13 22 30 6 251 47 146 200 186
185 184 185 183 177 186 177 157 156 168 167 209 189 217 248 232 220 173 140 111 122 116 119 108 87 96 110 107 7 42 62 131 162 318 340 336 22 5 222 125 125 190 160
176 183 187 183 185 180 176 177 168 178 202 135 227 249 242 256 234 240 170 131 134 134 120 111 85 72 85 109 100 104 57 58 67 113 294 330 12 6 37 101 122 114 187
178 179 182 183 191 188 177 185 180 194 198 204 242 233 237 228 260 246 194 149 153 144 145 138 114 92 88 90 93 82 119 133 170 114 117 293 253 324 356 35 66 56 313